Location: Irma
(52.9170°N, 111.2330°W)
Time: 16:17:13
(UTC-06:00)

Daily predictions for brighter satellites

Satellite Brightness Start Highest point End
(mag) Time Altitude Azimuth Time Altitude Azimuth Time Altitude Azimuth
Cosmos 2154 Rocket 4.2 18:52:35 10° SSW 18:58:55 84° W 19:05:20 10° N
Cosmos 2221 4.3 18:59:01 10° ESE 19:00:47 12° E 19:02:32 10° NE
Cosmos 2366 rocket 4.4 18:55:54 10° SSE 19:01:40 42° E 19:07:25 10° NNE
Cosmos 1315 Rocket 3.8 18:58:40 10° N 19:02:07 26° ENE 19:05:36 10° SE
Cosmos 921 Rocket 3.8 19:00:15 10° N 19:04:25 34° ENE 19:08:29 10° ESE
BREEZE-M DEB (TANK) 4.0 19:03:44 10° WSW 19:05:30 15° SW 19:06:52 10° S
COSMOS 2487 4.4 19:02:37 10° WSW 19:05:48 30° NW 19:09:01 10° N
Cosmos 2112 Rocket 4.0 19:00:43 10° SSW 19:05:58 69° ESE 19:11:14 10° NNE
Cosmos 1867 3.9 19:03:47 10° SW 19:09:13 68° NW 19:14:42 10° NE
METEOR-M 4.1 19:03:58 10° SSE 19:09:18 74° ENE 19:14:40 10° NNW
COSMOS 2428 3.3 19:04:31 10° NNW 19:09:49 38° NE 19:15:06 10° ESE
SPOT 3 Rocket 3.6 19:05:06 10° SSE 19:10:15 69° ENE 19:15:28 10° NNW
Ariane Rocket 4.3 19:05:29 10° S 19:10:22 46° W 19:15:18 10° NNW
Cosmos 2058 3.2 19:08:27 10° N 19:12:31 45° ENE 19:16:32 10° SSE
Cosmos 2056 Rocket 3.8 19:07:31 10° NNW 19:12:54 78° WSW 19:18:10 10° SSE
Cosmos 2333 Rocket 3.3 19:08:15 10° NNW 19:13:08 28° NE 19:18:02 10° E
Cosmos 1461 3.5 19:11:14 10° S 19:15:00 37° ESE 19:18:57 10° NE
SL-8 Rocket 4.0 19:10:26 10° S 19:16:33 67° E 19:22:45 10° NNE
RESURS DK-1 2.4 19:12:43 10° NNW 19:16:51 60° NE 19:20:56 10° SE
Cosmos 2360 Rocket 2.2 19:11:21 10° NNW 19:17:02 71° NE 19:22:41 10° SE
COSMO-SKYMED 1 2.9 19:13:28 10° NNE 19:17:40 44° E 19:21:49 10° S
Cosmos 1626 2.1 19:14:05 10° N 19:17:49 62° ENE 19:21:32 10° SSE
Cosmos 2082 Rocket 3.4 19:15:24 10° WSW 19:20:50 43° NW 19:26:19 10° NNE
Cosmos 2084 4.4 19:18:07 10° NW 19:21:25 27° NNE 19:24:10 13° ENE
Cosmos 2322 Rocket 3.1 19:17:39 10° NW 19:23:07 54° WSW 19:28:35 10° S
SL-24 R/B - RUBIN 2 3.8 19:19:39 10° NW 19:24:52 86° NE 19:29:30 10° SE
deb Kosmos-1763 4.3 19:21:57 10° S 19:25:39 50° ESE 19:29:24 10° NE
NOAA 12 4.1 19:20:24 10° SSE 19:25:40 71° ENE 19:31:00 10° NNW
EO 1 Del DPAF 3.2 19:22:28 10° NNE 19:26:19 63° ESE 19:30:08 10° S
Cosmos 1408 Rocket 4.4 19:22:02 10° NNW 19:26:24 57° W 19:30:45 10° S
Lacrosse 4 Rocket 3.7 19:23:26 10° W 19:26:50 21° NNW 19:30:12 10° NNE
Cosmos 1470 4.0 19:23:26 10° SSW 19:27:18 47° WNW 19:31:11 10° N
Lacrosse 5 rocket 1.4 19:25:08 10° WSW 19:29:38 82° SSE 19:33:24 13° ENE
Meteor 1-11 4.4 19:24:19 10° NNW 19:30:11 82° W 19:35:56 10° S
Cosmos 1452 Rocket 3.5 19:25:34 10° NNW 19:30:50 70° ENE 19:36:05 10° SE
BREEZE-M DEB (TANK) 4.1 19:28:55 10° W 19:32:32 51° S 19:44:41 10° ESE
Sich 1 4.3 19:29:31 10° NNE 19:32:53 21° ENE 19:35:07 15° ESE
SJ-6B 3.4 19:31:39 10° SE 19:35:00 32° ENE 19:38:21 10° N
Cosmos 1805 Rocket 4.4 19:31:37 10° N 19:35:30 30° ENE 19:39:23 10° SE
Aureole 1 Rocket 3.6 19:30:19 10° S 19:36:33 63° ESE 19:41:15 10° NNE
Cosmos 2218 Rocket 3.9 19:30:31 10° S 19:36:38 77° E 19:42:48 10° NNE
Genesis I 4.4 19:33:00 10° WSW 19:36:45 41° NW 19:40:33 10° NE
Aureole 2 4.2 19:35:28 10° NNW 19:38:23 54° ENE 19:41:25 10° SE
ATLAS 5 CENTAUR R/B 3.4 19:35:05 10° WNW 19:39:35 32° NNW 19:44:35 10° NE
Cosmos 1727 Rocket 4.1 19:35:18 10° N 19:41:43 89° ENE 19:48:05 10° S
Cosmos 2322 3.7 19:36:51 10° NNW 19:42:39 85° ENE 19:48:23 10° SSE
SKYMED 3 4.5 19:43:25 10° NNE 19:47:48 83° ESE 19:52:09 10° SSW
Cosmos 1703 3.4 19:44:24 10° NNW 19:48:22 80° W 19:52:18 10° S
GP-B 3.3 19:43:56 10° N 19:48:24 76° W 19:52:49 10° S
Gbstr 26 Del rocket 3.6 19:43:50 10° W 19:48:37 72° SSW 19:53:04 18° ESE
YAOGAN 1 4.3 19:44:57 10° SSW 19:48:59 36° W 19:53:00 10° NNW
Abrixas rocket 3.6 19:47:23 10° SW 19:50:09 25° SSE 19:51:14 20° SE
Meteor 1-16 Rocket 4.3 19:45:50 10° SSW 19:51:08 78° WNW 19:56:33 10° NNE
Aureole 2 Rocket 3.6 19:47:54 10° N 19:51:13 30° NE 19:52:30 24° E
ALOS 2.4 19:46:55 10° SSE 19:51:37 81° WSW 19:56:20 10° NNW
Cosmos 1633 Rocket 4.1 19:50:14 10° N 19:54:00 27° ENE 19:55:17 23° E
Spot 2 Rocket 4.3 19:51:35 19° ESE 19:54:19 31° ENE 19:58:44 10° N
Cosmos 1833 Rocket 4.4 19:49:53 10° W 19:54:46 30° NW 19:59:41 10° NNE
CZ-4 R/B 4.1 19:52:01 10° SSW 19:55:26 23° W 19:58:49 10° NW
Cosmos 1400 Rocket 3.7 19:53:51 10° NNW 19:57:50 52° W 20:01:45 10° S
FENGYUN 3A 3.9 19:53:54 10° S 19:59:17 75° WSW 20:04:45 10° NNW
Cosmos 2123 Rocket 4.4 19:54:15 10° N 20:00:08 42° ENE 20:05:32 12° SE
SKYMED 2 3.9 20:01:27 10° N 20:05:48 69° WNW 20:10:06 10° SSW
Cosmos-2242 4.4 20:02:01 10° SW 20:06:04 41° WNW 20:10:08 10° N
Cosmos 2219 Rocket 2.3 20:02:07 10° NNW 20:07:39 55° NE 20:11:01 23° ESE
GRACE-2 4.2 20:06:47 10° S 20:09:20 60° W 20:11:55 10° N
Thor Agena Rocket 3.5 20:04:30 10° NNE 20:09:34 56° ESE 20:14:33 10° S
GRACE-1 4.4 20:08:39 10° SSW 20:11:13 55° W 20:13:47 10° N
Cosmos 2151 4.1 20:11:18 10° NNW 20:15:26 45° W 20:19:30 10° SSW
Cosmos 1908 3.1 20:12:52 10° S 20:16:46 67° E 20:20:39 10° NNE
Cosmos 2333 4.2 20:12:24 10° NNW 20:18:09 87° ENE 20:22:46 16° SSE
Cosmos 1420 Rocket 4.3 20:12:50 10° NNW 20:18:10 72° WSW 20:23:26 10° SSE
USA 234 3.2 20:15:23 25° ESE 20:19:29 81° NNE 20:26:05 10° WNW
Iridium 4 Rocket 3.6 20:18:20 10° S 20:23:52 79° E 20:29:45 10° N
H-2A R/B 3.1 20:20:15 10° S 20:24:07 68° WSW 20:28:03 10° NNW
Cosmos 1939 Rocket 3.9 20:25:28 30° NE 20:25:28 30° NE 20:28:36 10° N
Cosmos 1842 Rocket 4.2 20:22:05 10° SSW 20:26:31 59° WNW 20:30:57 10° N
Meteor 2-3 Rocket 4.4 20:22:02 10° N 20:27:18 34° ENE 20:28:12 32° E
Envisat 3.1 20:26:29 31° SE 20:28:40 54° ENE 20:33:38 10° N
Resurs 01 Rocket 1.6 20:27:34 39° SE 20:28:58 57° ENE 20:33:19 10° N
FREGAT/IRIS 4.0 20:28:49 10° S 20:31:40 39° W 20:34:32 10° NNW
Cosmos 2237 Rocket 2.4 20:30:18 10° NNW 20:35:53 52° NE 20:37:30 40° E
Cosmos 2221 2.4 20:33:18 10° S 20:37:37 89° SE 20:42:01 10° N
In-Cosmos 22 Rocket 4.2 20:32:01 10° N 20:37:39 63° ENE 20:40:21 31° SE
CZ-2D R/B 3.1 20:37:04 46° SSE 20:38:11 87° ENE 20:42:06 10° NNW
Cosmos 1315 Rocket 4.4 20:35:04 10° NNW 20:38:49 37° W 20:42:35 10° SSW
Cosmos 1470 Rocket 4.4 20:37:37 10° N 20:41:01 36° NE 20:41:01 36° NE
SL-16 R/B 3.0 20:38:46 10° NNW 20:43:54 33° NE 20:44:36 32° ENE
HJ-1C 4.4 20:43:41 21° SSW 20:45:39 46° W 20:48:58 10° NNW
Resurs 1-3 3.4 20:45:54 55° SE 20:46:49 78° ENE 20:51:14 10° NNW
Cosmos 158 Rocket 3.8 20:46:36 10° SSW 20:51:38 68° ESE 20:56:50 10° NNE
Cosmos 1535 Rocket 4.3 20:46:21 10° S 20:52:29 79° E 20:58:37 10° NNE
Cosmos 1331 Rocket 3.9 20:47:49 10° NNW 20:53:06 71° ENE 20:54:01 58° ESE
Cosmos 1461 4.0 20:50:10 10° WSW 20:54:08 43° NW 20:56:07 26° NNE
COSMOS 2428 3.3 20:48:48 10° NW 20:54:21 54° WSW 20:58:23 18° S
ERS-1 Rocket 4.3 20:55:31 26° NE 20:55:31 26° NE 20:58:39 10° N
Cosmos 2333 Rocket 2.2 20:52:20 10° NNW 20:58:07 85° WSW 21:00:03 44° SSE
SJ-11-01 4.4 20:58:32 59° NE 20:58:32 59° NE 21:02:59 10° N
Cosmos 1980 3.6 20:53:04 10° NNW 20:58:46 75° ENE 20:59:51 57° ESE
Cosmos 1269 Rocket 4.3 20:53:38 10° S 21:05:42 - NNE 20:57:37 47° SSE
Cosmos 2360 Rocket 4.3 20:56:02 10° NW 21:00:34 25° WSW 21:05:05 10° SSW
Cosmos 2084 3.5 20:57:30 10° NW 21:00:45 63° WNW 21:00:45 63° WNW
Cosmos 2098 Rocket 3.6 21:00:53 10° SSW 21:05:21 72° WNW 21:11:09 10° N
Cosmos 1833 4.5 21:01:18 10° SW 21:06:58 67° NW 21:12:36 10° NNE
Lacrosse 4 Rocket 4.1 21:05:43 10° NNW 21:07:10 11° N 21:08:37 10° NNE
Lacrosse 5 rocket 2.0 21:04:52 10° W 21:09:05 50° N 21:09:05 50° N
Sich 1 3.7 21:06:39 10° NNW 21:10:54 54° W 21:12:08 40° SSW
Cosmos 2219 3.9 21:06:08 10° SSW 21:09:45 38° S 21:09:45 38° S
NOSS 0 Rocket 4.0 21:08:34 10° NW 21:14:46 74° WSW 21:16:34 47° S
USA 32 3.9 21:12:16 10° N 21:17:33 87° E 21:17:42 84° SE
Cosmos 1302 Rocket 4.1 21:12:20 10° NNW 21:17:06 64° NNE 21:17:06 64° NNE
H-2A R/B 3.6 21:20:20 24° NNE 21:20:20 24° NNE 21:23:14 10° N
BREEZE-M DEB (TANK) 3.9 21:12:40 10° W 21:19:03 35° SSW 21:19:03 35° SSW
MOS 1-B Rocket 4.5 21:16:03 18° S 21:20:15 55° W 21:26:17 10° NNW
USA 267 3.3 21:24:25 56° SSE 21:24:25 56° SSE 21:30:30 10° SW
Cosmos 1821 Rocket 4.4 21:18:23 10° SSW 21:24:27 61° WNW 21:30:42 10° N
CZ-3A R/B 4.1 20:59:33 10° WNW 21:24:30 80° SSW 21:27:05 48° SE
ATLAS 5 CENTAUR R/B 3.4 21:21:03 10° NW 21:25:43 29° N 21:26:35 28° NNE
Aureole 2 Rocket 4.2 21:22:52 10° NW 21:25:58 33° W 21:25:58 33° W
Cosmos 1633 Rocket 4.1 21:27:47 10° NNW 21:31:58 42° W 21:32:23 41° WSW
Spot 2 Rocket 4.2 21:31:48 40° SW 21:33:05 50° W 21:38:02 10° NNW
Cosmos 1934 Rocket 4.3 21:27:17 10° SSW 21:33:37 67° WNW 21:39:59 10° N
CZ-4C R/B 4.4 21:42:27 10° SSW 21:42:52 12° SSW 21:42:52 12° SSW
Cosmos 2219 Rocket 3.5 21:46:27 10° NW 21:51:23 33° WSW 21:52:46 29° SW
Cosmos 1605 Rocket 4.3 21:56:46 45° SW 21:58:28 63° WNW 22:04:33 10° N
ARGOS 4.2 22:01:01 39° N 22:01:01 39° N 22:04:23 10° NNW
USA 234 3.7 22:02:44 50° SW 22:02:49 50° SW 22:09:10 10° WNW
Resurs 01 Rocket 3.8 22:05:10 20° WSW 22:05:49 21° W 22:09:09 10° NW
Terra 4.3 22:12:29 14° N 22:12:29 14° N 22:13:11 10° N
Meteor 2-3 Rocket 4.5 22:05:11 10° NNW 22:10:30 50° W 22:10:30 50° W
Cosmos 2237 Rocket 3.4 22:14:39 10° NW 22:19:21 36° W 22:19:21 36° W
SL-16 R/B 3.3 22:22:48 10° NW 22:26:29 40° NW 22:26:29 40° NW
Cosmos 2333 Rocket 4.4 22:37:51 10° WNW 22:41:34 18° W 22:42:05 18° WSW
H-2A R/B 4.2 23:00:58 24° NNW 23:00:58 24° NNW 23:03:06 10° NNW
ATLAS 5 CENTAUR R/B 4.2 23:05:59 10° NW 23:08:07 24° NW 23:08:07 24° NW
